User: anonymous   Login
Location: Dürabuch
(48.2640°N, 11.2185°E)
Time: 17:08:36
(UTC+00:00)
Language:

Cosmos 1892 - Orbit

View from above orbital plane
View from above orbital plane
View from above satellite
View from above satellite

Ground track
Ground track

The orbit data is extracted from the following two-line orbital elements,

1 18421U 87088A   24199.58998708  .00018563  00000-0  53414-3 0  9999
2 18421  82.4903 226.6692 0008862 237.5781 122.4606 15.35614129 11330
Epoch (UTC): 17 July 2024 14:09:34
Eccentricity: 0.0008862
inclination: 82.4903°
perigee height: 453 km
apogee height: 465 km
right ascension of ascending node: 226.6692°
argument of perigee: 237.5781°
revolutions per day: 15.35614129
mean anomaly at epoch: 122.4606°
orbit number at epoch: 1133

The dashed part of the orbit path shows where the satellite is in the earth's shadow,  

DLR